[[{"header":{"parameterUnit":"m.s-1","parameterCategory":1,"la1":30.2991,"la2":30.254,"lo1":-89.0895,"lo2":-89.0444,"dy":0.0017,"dx":0.0017,"nx":28,"ny":28,"refTime":"2025-12-21T03:00:00:Z","depth":0,"parameterNumber":2,"parameterNumberName":"U-component_of_WINDS"},"data":[0,0,0,0,0,0,0,0,0,0,0,0,0,0,0,0,0,0,0,0,0,0,0,0,0,0,0,0,0,0,0,0,0,0,0,0,0,0,0,0,0,0,0,0,0,0,0,0,0,0,0,0,0,0,0,0,0,0,-1.9562,-1.9562,0,-1.9561,-1.9561,-1.9561,-1.9544,-1.9543,-1.9543,-1.9542,-1.9542,-1.9542,-1.9542,0,0,0,0,0,0,0,0,0,0,0,0,0,-1.9549,-1.9549,-1.9562,-1.9562,-1.9562,-1.9561,-1.9561,-1.9561,-1.9544,-1.9543,-1.9543,-1.9542,-1.9542,-1.9542,-1.9542,0,0,0,0,0,0,0,0,0,0,0,0,0,-1.9552,-1.9549,-1.9562,-1.9554,-1.9553,-1.9561,-1.9561,-1.9561,-1.9544,-1.9543,-1.9542,-1.9542,-1.9541,-1.9542,-1.9543,-1.956,0,0,-1.9544,-1.9545,0,0,0,0,0,0,0,0,-1.9552,-1.9553,-1.9555,-1.9554,-1.9553,-1.9552,-1.9556,-1.9561,-1.9544,-1.9547,-1.9542,-1.9542,-1.9546,-1.9546,-1.9547,-1.956,-1.956,-1.9544,-1.9545,-1.9545,-1.9545,0,0,0,0,0,0,0,-1.9552,-1.9553,-1.9562,-1.9555,-1.9554,-1.9549,-1.9549,-1.9557,-1.955,-1.9547,-1.9546,-1.9546,-1.9545,-1.9547,-1.9547,-1.956,-1.9544,-1.9545,-1.9545,-1.9546,-1.9584,-1.9585,0,0,0,0,0,0,-1.9553,-1.9552,-1.9562,-1.9562,-1.9551,-1.955,-1.955,-1.9553,-1.955,-1.9549,-1.9546,-1.9545,-1.9546,-1.9546,-1.9547,-1.9565,-1.9545,-1.9546,-1.9546,-1.9583,-1.9584,-1.9585,0,0,0,0,0,0,-1.9553,-1.9554,-1.9562,-1.9557,-1.9558,-1.9551,-1.9555,-1.9553,-1.9555,-1.955,-1.9548,-1.9549,-1.9545,-1.9546,-1.9556,-1.9565,-1.9546,-1.9546,-1.9583,-1.9584,-1.9584,-1.9603,0,0,0,0,0,0,-1.9552,-1.9554,-1.9561,-1.9557,-1.9558,-1.9572,-1.9555,-1.9554,-1.9556,-1.9554,-1.9552,-1.9551,-1.9545,-1.9555,-1.9557,-1.9565,-1.9547,-1.9582,-1.9583,-1.9584,-1.9601,-1.9604,-1.9607,0,0,0,0,0,-1.9552,-1.9566,-1.9561,-1.9562,-1.9566,-1.9572,-1.9573,-1.9565,-1.9557,-1.9563,-1.9559,-1.9551,-1.9564,-1.9556,-1.9558,-1.9567,-1.9581,-1.9583,-1.9584,-1.96,-1.9604,-1.9607,0,0,0,0,0,0,-1.9572,-1.9566,-1.956,-1.9574,-1.9573,-1.9569,-1.9577,-1.957,-1.9572,-1.957,-1.9561,-1.9561,-1.9572,-1.9571,-1.9562,-1.9582,-1.9571,-1.9573,-1.9583,-1.9586,-1.9589,-1.9588,-1.9547,0,0,0,0,0,-1.9578,-1.9583,-1.9578,-1.959,-1.959,-1.9584,-1.9586,-1.958,-1.958,-1.958,-1.9577,-1.9577,-1.9581,-1.9583,-1.9587,-1.9601,-1.96,-1.9608,-1.9611,-1.9613,-1.9614,-1.962,-1.9623,-1.959,-1.959,-1.959,0,0,-1.959,-1.9587,-1.9592,-1.9594,-1.9593,-1.9598,-1.9584,-1.9591,-1.9594,-1.9581,-1.959,-1.9588,-1.9587,-1.9598,-1.9604,-1.9598,-1.9623,-1.9615,-1.9617,-1.9617,-1.9622,-1.9625,-1.9628,-1.9591,-1.9591,-1.959,0,0,-1.9615,-1.9614,-1.9624,-1.9623,-1.9621,-1.9616,-1.9619,-1.9615,-1.9613,-1.9622,-1.9611,-1.9615,-1.9623,-1.9622,-1.9622,-1.9645,-1.9637,-1.9647,-1.9661,-1.9666,-1.9669,-1.9671,-1.9678,-1.968,-1.9648,-1.9649,-1.9649,0,-1.963,-1.9638,-1.963,-1.9636,-1.9637,-1.9625,-1.9634,-1.9633,-1.9633,-1.9634,-1.9627,-1.9635,-1.9634,-1.9644,-1.9649,-1.9651,-1.9652,-1.9647,-1.9669,-1.9671,-1.9673,-1.9679,-1.9682,-1.965,-1.9649,-1.9649,-1.9649,0,-1.9656,-1.9661,-1.9669,-1.9668,-1.967,-1.9678,-1.967,-1.9673,-1.9667,-1.9663,-1.9671,-1.9669,-1.9671,-1.9673,-1.9668,-1.9682,-1.9678,-1.9671,-1.9659,-1.9678,-1.9683,-1.9686,-1.9651,-1.9651,-1.965,-1.965,0,0,-1.9694,-1.9687,-1.969,-1.9688,-1.9685,-1.9689,-1.9696,-1.9697,-1.9699,-1.9699,-1.9704,-1.971,-1.9702,-1.9703,-1.9697,-1.9702,-1.9718,-1.9693,-1.9693,-1.9697,-1.9732,-1.9737,-1.974,-1.9713,-1.9713,-1.9714,-1.9732,0,-1.9716,-1.9727,-1.9719,-1.9731,-1.9735,-1.9723,-1.9728,-1.9727,-1.9723,-1.9725,-1.9721,-1.9724,-1.9715,-1.9715,-1.972,-1.9715,-1.9725,-1.9714,-1.9716,-1.9716,-1.9716,-1.9743,-1.9749,-1.9766,-1.9734,-1.9734,-1.9735,0,-1.9744,-1.9744,-1.9756,-1.975,-1.9752,-1.9757,-1.9756,-1.9759,-1.9757,-1.9754,-1.9754,-1.9746,-1.9752,-1.9741,-1.9748,-1.974,-1.9741,-1.9739,-1.9739,-1.9738,-1.9726,-1.9741,-1.9771,-1.9773,-1.9738,-1.9738,-1.9738,0,-1.9768,-1.9771,-1.9778,-1.9778,-1.9772,-1.9775,-1.9773,-1.977,-1.9771,-1.9771,-1.9771,-1.9772,-1.9772,-1.9772,-1.9765,-1.9758,-1.9772,-1.9761,-1.9769,-1.9769,-1.9771,-1.9771,-1.98,-1.9774,-1.9774,-1.9774,-1.9774,0,-1.9793,-1.98,-1.9789,-1.9793,-1.9801,-1.9791,-1.9799,-1.9796,-1.9793,-1.9796,-1.9786,-1.9789,-1.9779,-1.9781,-1.9776,-1.9781,-1.9782,-1.9779,-1.9777,-1.9779,-1.9779,-1.9778,-1.9776,-1.9775,-1.9774,-1.9774,-1.9774,0,-1.982,-1.9813,-1.982,-1.9813,-1.9812,-1.9817,-1.9812,-1.9815,-1.981,-1.9814,-1.9814,-1.9806,-1.9808,-1.9801,-1.9801,-1.9797,-1.9806,-1.9802,-1.9806,-1.9805,-1.9812,-1.9811,-1.9841,-1.9843,-1.9817,-1.9817,-1.9817,0,-1.9836,-1.9841,-1.9835,-1.9836,-1.9834,-1.9836,-1.9836,-1.9827,-1.9828,-1.9824,-1.9828,-1.9829,-1.9828,-1.9831,-1.9826,-1.9826,-1.9822,-1.9832,-1.9822,-1.9823,-1.982,-1.9819,-1.9819,-1.9834,-1.9834,-1.9835,-1.9835,0,-1.9865,-1.986,-1.9861,-1.986,-1.986,-1.9859,-1.9857,-1.9859,-1.9849,-1.985,-1.9851,-1.985,-1.985,-1.9851,-1.9849,-1.9847,-1.9839,-1.9838,-1.984,-1.9841,-1.9842,-1.984,-1.981,-1.9837,-1.9837,-1.9837,-1.9837,-1.9837,-1.9886,-1.9889,-1.9884,-1.9885,-1.9882,-1.9881,-1.9883,-1.9878,-1.9878,-1.9877,-1.9872,-1.9873,-1.987,-1.9867,-1.9865,-1.9866,-1.9861,-1.9863,-1.9864,-1.9864,-1.9865,-1.9843,-1.9866,-1.9866,-1.9866,-1.9865,-1.9865,0,-1.9912,-1.9908,-1.9909,-1.9906,-1.9906,-1.9898,-1.9895,-1.9896,-1.9897,-1.9894,-1.9894,-1.9895,-1.9895,-1.9889,-1.9888,-1.9889,-1.9886,-1.9889,-1.9888,-1.9888,-1.987,-1.9868,-1.9892,-1.9892,-1.9892,-1.9892,-1.9892,-1.9892,-1.9926,-1.993,-1.9925,-1.9928,-1.9924,-1.9925,-1.9924,-1.9922,-1.9919,-1.992,-1.992,-1.9916,-1.9911,-1.991,-1.9909,-1.9907,-1.9907,-1.9911,-1.9908,-1.9892,-1.9889,-1.9887,-1.9885,-1.9912,-1.9912,-1.9925,-1.9926,-1.9926]},{"header":{"parameterUnit":"m.s-1","parameterCategory":1,"la1":30.2991,"la2":30.254,"lo1":-89.0895,"lo2":-89.0444,"dy":0.0017,"dx":0.0017,"nx":28,"ny":28,"refTime":"2025-12-21T03:00:00:Z","depth":0,"parameterNumber":3,"parameterNumberName":"V-component_of_WINDS"},"data":[0,0,0,0,0,0,0,0,0,0,0,0,0,0,0,0,0,0,0,0,0,0,0,0,0,0,0,0,0,0,0,0,0,0,0,0,0,0,0,0,0,0,0,0,0,0,0,0,0,0,0,0,0,0,0,0,0,0,0.9226,0.9226,0,0.9275,0.9275,0.9276,0.9278,0.9277,0.9276,0.9276,0.9327,0.9329,0.9331,0,0,0,0,0,0,0,0,0,0,0,0,0,0.9134,0.9136,0.9226,0.9226,0.9227,0.9275,0.9276,0.9276,0.9278,0.9277,0.9276,0.9276,0.9326,0.9329,0.9331,0,0,0,0,0,0,0,0,0,0,0,0,0,0.9178,0.9136,0.9225,0.9233,0.9234,0.9275,0.9276,0.9276,0.9278,0.9277,0.9276,0.9275,0.9326,0.9328,0.9331,0.9367,0,0,0.934,0.9341,0,0,0,0,0,0,0,0,0.9175,0.9181,0.9232,0.9233,0.9234,0.9269,0.9262,0.9307,0.9278,0.9261,0.9276,0.9275,0.9308,0.9313,0.9324,0.9369,0.9372,0.934,0.9342,0.9343,0.9344,0,0,0,0,0,0,0,0.9172,0.9179,0.9245,0.9232,0.9234,0.9235,0.924,0.9271,0.9289,0.9263,0.9263,0.9269,0.9309,0.9321,0.9325,0.9372,0.934,0.9343,0.9344,0.9346,0.9452,0.9453,0,0,0,0,0,0,0.9167,0.9176,0.9244,0.9247,0.9202,0.9237,0.9243,0.9259,0.9289,0.9293,0.927,0.9269,0.9317,0.9322,0.9327,0.9373,0.9343,0.9346,0.9348,0.9451,0.9452,0.9453,0,0,0,0,0,0,0.9166,0.9173,0.9242,0.9212,0.922,0.924,0.9258,0.926,0.9272,0.9294,0.9298,0.9278,0.9316,0.9323,0.9357,0.9374,0.9347,0.935,0.9449,0.9451,0.9453,0.9463,0,0,0,0,0,0,0.9163,0.9173,0.9186,0.9212,0.9222,0.9271,0.9259,0.9262,0.9277,0.9277,0.9303,0.9307,0.9316,0.9353,0.936,0.9378,0.9352,0.9448,0.945,0.9452,0.9461,0.9465,0.9468,0,0,0,0,0,0.916,0.9187,0.9187,0.9195,0.9239,0.9272,0.9278,0.9287,0.9279,0.9293,0.9307,0.9306,0.9371,0.9357,0.9365,0.9383,0.9447,0.9449,0.9452,0.946,0.9464,0.9468,0,0,0,0,0,0,0.9162,0.919,0.9191,0.9227,0.9247,0.9272,0.929,0.9291,0.9314,0.9313,0.9324,0.933,0.9365,0.9377,0.9361,0.942,0.9408,0.9412,0.9411,0.9415,0.9419,0.9415,0.9354,0,0,0,0,0,0.9167,0.9191,0.9214,0.9244,0.9254,0.927,0.9285,0.9291,0.9312,0.9321,0.9337,0.9358,0.9384,0.94,0.9424,0.9463,0.9469,0.9479,0.9483,0.9485,0.9489,0.9512,0.9517,0.9461,0.9461,0.9461,0,0,0.9177,0.9196,0.921,0.9245,0.9261,0.9287,0.9277,0.9304,0.9323,0.9325,0.9359,0.9372,0.9396,0.9433,0.945,0.9445,0.9506,0.9488,0.949,0.9493,0.9515,0.9521,0.9525,0.9463,0.9463,0.9462,0,0,0.9209,0.9225,0.9252,0.9269,0.9294,0.9304,0.9311,0.9336,0.9345,0.9379,0.9382,0.9404,0.9447,0.9465,0.948,0.952,0.952,0.9527,0.9545,0.9567,0.9571,0.9576,0.9591,0.9597,0.9531,0.9531,0.9531,0,0.9219,0.9257,0.9266,0.9293,0.9309,0.9312,0.934,0.9356,0.9388,0.9399,0.9392,0.9447,0.9463,0.9506,0.9516,0.9527,0.9536,0.9525,0.957,0.9574,0.9578,0.9593,0.9599,0.9532,0.9531,0.9531,0.9531,0,0.9268,0.9295,0.9314,0.9345,0.9363,0.939,0.9405,0.9422,0.9426,0.9438,0.9474,0.9494,0.9523,0.9533,0.9537,0.9576,0.9572,0.9567,0.9556,0.9584,0.9599,0.9605,0.9533,0.9532,0.9532,0.9532,0,0,0.9304,0.934,0.9347,0.9362,0.939,0.9411,0.9439,0.9468,0.9483,0.9505,0.953,0.9566,0.9563,0.9579,0.9586,0.9605,0.9638,0.9598,0.9599,0.9606,0.9684,0.9688,0.9695,0.9638,0.9639,0.964,0.9682,0,0.934,0.939,0.94,0.9444,0.9469,0.9472,0.9497,0.9518,0.9529,0.9553,0.9566,0.9593,0.9585,0.9595,0.9614,0.9629,0.9654,0.9626,0.9662,0.9663,0.9658,0.9702,0.9707,0.9746,0.9688,0.9689,0.969,0,0.9389,0.9413,0.9459,0.9485,0.9496,0.9519,0.9547,0.9569,0.9592,0.96,0.9619,0.9623,0.9654,0.9639,0.9682,0.9664,0.9679,0.9689,0.969,0.9695,0.9679,0.971,0.9759,0.9766,0.9698,0.9698,0.9697,0,0.9412,0.9456,0.949,0.9502,0.9533,0.9549,0.9562,0.9585,0.9602,0.9626,0.9638,0.9665,0.9681,0.9702,0.9714,0.9702,0.9757,0.9743,0.9765,0.9765,0.9778,0.9777,0.9831,0.9785,0.9785,0.9784,0.9784,0,0.9453,0.9482,0.9501,0.9522,0.9555,0.9566,0.9598,0.9612,0.9632,0.9656,0.966,0.9683,0.9697,0.9722,0.9732,0.9767,0.9773,0.9781,0.9784,0.9782,0.9781,0.9793,0.9791,0.9786,0.9786,0.9785,0.9785,0,0.9485,0.9498,0.9536,0.9562,0.957,0.9593,0.9616,0.9637,0.9649,0.968,0.9688,0.9707,0.9737,0.9751,0.9788,0.9794,0.9835,0.9834,0.9827,0.9828,0.985,0.9849,0.9915,0.9925,0.9871,0.9871,0.9871,0,0.951,0.9533,0.9562,0.9578,0.9593,0.9619,0.9637,0.9649,0.9667,0.9696,0.9714,0.9744,0.9769,0.9817,0.9835,0.9863,0.9865,0.9886,0.9869,0.9867,0.9867,0.9867,0.987,0.989,0.989,0.9891,0.9891,0,0.9555,0.9561,0.9586,0.9615,0.9636,0.9658,0.9681,0.9694,0.971,0.973,0.9761,0.978,0.9819,0.9849,0.9879,0.9894,0.9896,0.9896,0.9903,0.9902,0.9898,0.9902,0.9837,0.9895,0.9895,0.9894,0.9894,0.9894,0.9586,0.9607,0.9631,0.9659,0.9677,0.9698,0.972,0.9735,0.9761,0.9793,0.9798,0.9832,0.9856,0.9896,0.9912,0.9939,0.9934,0.9943,0.9946,0.9949,0.9951,0.9892,0.9944,0.9944,0.9944,0.9944,0.9944,0,0.9633,0.9648,0.9674,0.9706,0.9729,0.9728,0.9753,0.9772,0.9801,0.9824,0.9848,0.9884,0.9914,0.9934,0.9965,0.9982,0.9984,0.999,0.999,0.9993,0.9953,0.9945,0.9988,0.9988,0.9988,0.9988,0.9988,0.9988,0.966,0.9695,0.9704,0.9749,0.9765,0.9798,0.9812,0.9832,0.985,0.9891,0.9915,0.9928,0.995,0.9982,1.001,1.0015,1.0027,1.0033,1.0039,1.0001,0.9996,0.9992,0.9984,1.0035,1.0035,1.0077,1.0078,1.0078]}]]